Regional Weather Roundup
Issued by NWS

Home | Current Version | Previous Version | Graphics & Text | Print | Product List | Glossary On
Versions: 1 2 3 4 5 6 7 8 9 10 11 12 13 14 15 16 17 18 19 20 21 22 23 24 25 26 27 28 29 30 31 32 33 34 35 36 37 38 39 40 41 42 43 44 45 46 47 48 49 50
000
ASUS44 KMEG 270100
RWRTN
TENNESSEE HOURLY STATE WEATHER ROUNDUP
NATIONAL WEATHER SERVICE MEMPHIS TN
800 PM CDT SUN MAR 26 2017

TNZ002-004-019-021-049-052-054-088>092-270200-
WEST TENNESSEE

CITY           SKY/WX    TMP DP  RH WIND       PRES   REMARKS
MEMPHIS INTL   PTCLDY    69  53  56 S6        29.94S
NWS MEMPHIS      N/A     68 N/A N/A MISG        N/A
JACKSON        PTCLDY    64  53  67 CALM      29.96R
DYERSBURG      CLOUDY    63  55  75 CALM      29.96S
PARIS          CLEAR     61  48  63 CALM      29.98R
$$

TNZ008-025-027-028-033-062-065-066-270200-
NORTH MIDDLE TENNESSEE

CITY           SKY/WX    TMP DP  RH WIND       PRES   REMARKS
NASHVILLE      MOCLDY    66  54  65 S6        29.99R
CLARKSVILLE    CLOUDY    66  51  58 NW5       29.97R
SMYRNA         CLOUDY    67  55  65 S7        30.00R
CROSSVILLE     PTCLDY    62  52  69 VRB5      30.06R
$$

TNZ061-075-076-078-094-096-097-270200-
SOUTH MIDDLE TENNESSEE

CITY           SKY/WX    TMP DP  RH WIND       PRES   REMARKS
TULLAHOMA      CLEAR     63  52  67 CALM      30.04R
WINCHESTER     CLEAR     59  52  77 CALM      30.04R
MCMINNVILLE    CLOUDY    64  54  68 SW5       30.03R
COLUMBIA       MOCLDY    66  55  68 S3        29.98R
SHELBYVILLE    MOCLDY    66  55  68 S6        30.02S
$$

TNZ017-018-042-046-047-270200-
NORTHEAST TENNESSEE

CITY           SKY/WX    TMP DP  RH WIND       PRES   REMARKS
TRI CITIES     CLOUDY    65  54  67 CALM      30.05R
$$

TNZ012-013-036-069-073-074-270200-
CENTRAL EAST TENNESSEE

CITY           SKY/WX    TMP DP  RH WIND       PRES   REMARKS
KNOXVILLE      PTCLDY    64  54  69 SW7       30.01R
OAK RIDGE      MOCLDY    69  51  52 VRB3      30.03R
GATLINBURG     CLEAR     68  50  52 SW6       30.02R
$$

TNZ083-085-099-270200-
SOUTHEAST TENNESSEE

CITY           SKY/WX    TMP DP  RH WIND       PRES   REMARKS
CHATTANOOGA    PTCLDY    70  52  52 CALM      30.03R
$$

SKY/WX REPORTED AS FAIR MEANS FEW OR NO CLOUDS BELOW
12 THOUSAND FEET.





USA.gov is the U.S. government's official web portal to all federal, state and local government web resources and services.